Regional Weather Roundup
Issued by NWS Bismarck, ND

Home | Current Version | Previous Version | Text Only | Print | Product List | Glossary On
Versions: 1 2 3 4 5 6 7 8 9 10 11 12 13 14 15 16 17 18 19 20 21 22 23 24 25 26 27 28 29 30 31 32 33 34 35 36 37 38 39 40 41 42 43 44 45 46 47 48 49 50
000
ASUS43 KBIS 291120
RWRBIS

NWR BROADCAST TEXT
NATIONAL WEATHER SERVICE BISMARCK ND
500 AM CST THU JAN 29 2015

NOTE: "FAIR" INDICATES FEW OR NO CLOUDS BELOW 12,000 FEET WITH NO
SIGNIFICANT WEATHER AND/OR OBSTRUCTIONS TO VISIBILITY.


CITY           SKY/WX    TMP DP  RH WIND       PRES   REMARKS
WILLISTON      MOCLDY    24  19  81 NW10      30.43R WCI  14
MINOT          CLOUDY    23  17  78 NW16      30.36R WCI  10
MINOT AFB      CLOUDY    23  22  98 NW18      30.36R WCI   8
BISMARCK       CLOUDY    28  22  78 N20       30.36R WCI  15
DICKINSON      CLOUDY    29  22  75 NW12      30.35R WCI  19
GARRISON         N/A     25  20  81 NW20      30.35R WCI  11
HETTINGER ARPT MOCLDY    29  22  75 NW17G23   30.37R WCI  17
JAMESTOWN      CLOUDY    26  21  81 NW23      30.27R WCI  11
BEACH          CLOUDY    28  25  86 NW14      30.41R WCI  17
CARRINGTON     CLOUDY    23  23 100 MISG      30.31R
CROSBY         CLOUDY    23  21  93 NW14G23   30.41R WCI  11
HARVEY         CLOUDY    21  19  93 NW20G28   30.32R WCI   6
HAZEN          CLOUDY    27  19  74 NW18G25   30.39R WCI  13
LINTON         CLOUDY    28  28 100 NW13G21   30.33R WCI  18
MANDAN         CLOUDY    27  21  80 NW17G24   30.35R WCI  14
OAKES            N/A     27  27 100 NW22      30.26R WCI  12
RUGBY          CLOUDY    18  14  86 NW25G31   30.34R WCI  -1
STANLEY        CLOUDY    23  23 100 NW15G26   30.36R WCI  10
TIOGA          CLOUDY    23  23 100 W17       30.40S WCI   9
WATFORD CITY   CLOUDY    27  21  80 NW15      30.39R WCI  15
$$

CITY           SKY/WX    TMP DP  RH WIND       PRES   REMARKS
GRAND FORKS    CLOUDY    19  13  77 N24G32    30.28R WCI   2
GRAND FORKS AF CLOUDY    19  12  75 N17G24    30.29R WCI   4
DEVILS LAKE    CLOUDY    21  14  73 N21G29    30.29R WCI   6
FARGO          CLOUDY    24  17  74 N23G35    30.25R WCI   9
CANDO          CLOUDY    18  14  86 NW21G29   30.32R WCI   1
CAVALIER       CLOUDY    16   9  73 NW26G33   30.31R WCI  -3
GWINNER        CLOUDY    30  28  93 N13       30.27R
ROLLA          FLURRIES  14  14 100 MISG      30.31R
WALHALLA         N/A     14  12  92 N24G31    30.33R WCI  -5
$$

CITY           SKY/WX    TMP DP  RH WIND       PRES   REMARKS
ABERDEEN       CLOUDY    31  25  78 N15       30.29R
MOBRIDGE       CLOUDY    34  25  69 N17       30.29R
BUFFALO          N/A     28  23  81 NW21      30.31S WCI  15
RAPID CITY     CLEAR     31  24  75 N18       30.38R WCI  19
GLASGOW        CLEAR     22  20  92 NE7       30.42S FOG     WCI  13
SIDNEY         CLOUDY    28  21  74 NW7       30.45R
WOLF POINT     PTCLDY    26  22  84 W6        30.45R WCI  19
GLENDIVE       CLEAR     25  21  86 CALM      30.44R
MILES CITY     CLEAR     24  21  88 NW6       30.45R WCI  17
BAKER          CLOUDY    28  23  81 NW15      30.41R WCI  16
$$

CITY           SKY/WX    TMP DP  RH WIND       PRES   REMARKS
BILLINGS       CLEAR     32  25  75 SW7       30.41F
GREAT FALLS    CLEAR     24  21  88 SW5       30.35S WCI  18
REGINA         CLOUDY    16  12  86 N12       30.43R WCI   3
ESTEVAN        FLURRIES  19  18  93 NW18      30.40R WCI   4
$$



USA.gov is the U.S. government's official web portal to all federal, state and local government web resources and services.